カタログに戻る

NOAA 16 DEB

運用中PO
NORAD 41365·DEBRIS·🇺🇸 United States

打ち上げ Sep 21, 2000 から Vandenberg Space Force Base

Loading…

次のパス (今後24時間)

TLE

最新Source: Space-Track

元期: Sep 13, 2026, 18:34 UTC

1 41365U 00055JJ  26256.77387372  .00006188  00000-0  13108-2 0  9992
2 41365  98.9270  92.5534 0023911 198.2087 161.8257 14.59440082552510

AllMySatでNOAA 16 DEBをリアルタイム追跡

Download on the App Store